Lexington Weather

Lexington, Massachusetts, USA

40°F
3/30/2020 9:10am 
  • Lexington Conditions: Mist, Overcast
  • Temperature: 39.9°F / 4.4°CWarmer 0.5°F than last hour.
  • Dew Point: 39.2°FIncreased 0.5°Fsince last hour.
  • Relative Humidity: 97
  • Wind: Wind from N N 4 mph, 10-min avg: 2 mph, gust: 6 mph
  • Barometer: 29.97 in Steady
  • Visibility: 2 miles
  • Rain Today: 0.02 in
  •   

Regional Weather Roundup
for Boston / Norton, MA

        
000
ASUS41 KBOX 281504
RWRBOX

REGIONAL WEATHER ROUNDUP
NATIONAL WEATHER SERVICE BOSTON/NORTON MA
1100 AM EDT SAT MAR 28 2020

NOTE:  "FAIR" INDICATES FEW OR NO CLOUDS BELOW 12,000 FEET WITH NO 
SIGNIFICANT WEATHER AND/OR OBSTRUCTIONS TO VISIBILITY.

MAZALL-281600-
EASTERN MASSACHUSETTS
  
CITY           SKY/WX    TMP DP  RH WIND       PRES   REMARKS
BOSTON         PTSUNNY   47  23  38 E8        30.19F                  
BEVERLY        FAIR      50  20  30 SE9       30.19S                  
LAWRENCE       FAIR      51  18  27 VRB6      30.19F                  
BEDFORD        FAIR      52  18  26 SE6       30.17F                  
BLUE HILL        N/A     50  18  28 S8        30.16S                  
NORWOOD        FAIR      53  19  26 S8        30.18S                  
MARSHFIELD     FAIR      50  30  46 SE7       30.19F                  
PLYMOUTH       FAIR      51  24  34 S6        30.18S                  
TAUNTON        FAIR      51  23  33 SE7       30.18S                  
NEW BEDFORD    FAIR      51  24  34 S7        30.19R                  
$$

MAZALL-281600-
CAPE COD AND THE ISLANDS
  
CITY           SKY/WX    TMP DP  RH WIND       PRES   REMARKS
FALMOUTH       SUNNY     52  27  37 S9        30.19S                  
HYANNIS        FAIR      51  30  44 S8        30.18S                  
CHATHAM        FAIR      49  23  36 SE8       30.21S                  
PROVINCETOWN   FAIR      50  28  42 VRB7      30.21S                  
NANTUCKET      FAIR      52  30  43 SE12      30.19S                  
MARTHAS VNYRD  FAIR      51  29  42 SE8       30.19S                  
$$
 
MAZALL-281600-
CENTRAL AND WESTERN MASSACHUSETTS
  
CITY           SKY/WX    TMP DP  RH WIND       PRES   REMARKS
WORCESTER      FAIR      46  14  27 SE8       30.17R                  
FITCHBURG      FAIR      50  13  22 E5        30.17S                  
ORANGE         FAIR      48  21  34 SW3       30.17S                  
SPRINGFIELD    CLOUDY    46  23  41 CALM      30.17S                  
WESTFIELD      FAIR      44  25  47 CALM      30.18S                  
NORTH ADAMS    FAIR      46  21  37 VRB7      30.15S                  
PITTSFIELD     FAIR      44  24  45 NE3       30.13R                  
$$
 
RIZALL-281600-
RHODE ISLAND
  
CITY           SKY/WX    TMP DP  RH WIND       PRES   REMARKS
PROVIDENCE     PTSUNNY   49  22  34 S5        30.19S                  
NEWPORT        FAIR      50  22  33 E6        30.18R                  
BLOCK ISLAND   PTSUNNY   44  32  62 E8        30.18S                  
SMITHFIELD     FAIR      48  18  30 VRB6      30.18S                  
WESTERLY       FAIR      51  19  28 E7        30.17F                  
$$
 
CTZALL-281600-
CONNECTICUT
  
CITY           SKY/WX    TMP DP  RH WIND       PRES   REMARKS
BRADLEY INTL   PTSUNNY   45  25  45 NE3       30.18F                  
HARTFORD       FAIR      46  28  49 N3        30.18F                  
BRIDGEPORT     FAIR      47  30  51 E14       30.16S                  
DANBURY        PTSUNNY   48  21  34 E14G21    30.15S                  
GROTON         CLOUDY    48  22  35 E8        30.17F                  
NEW HAVEN      FAIR      50  22  33 E13G21    30.17S                  
CHESTER        FAIR      48  18  29 CALM      30.17S                  
MERIDEN        FAIR      48  22  35 NE6       30.18S                  
WILLIMANTIC    FAIR      46  28  49 CALM      30.18F                  
OXFORD         PTSUNNY   46  21  37 E8        30.16S                  
$$

MEZ002-015-021-024-NHZ003-005-008-011-012-014-VTZ005-008-281600-
NORTHERN NEW ENGLAND
  
CITY           SKY/WX    TMP DP  RH WIND       PRES   REMARKS
PORTLAND ME    FAIR      51  18  27 SW5       30.18R                  
BANGOR ME      FAIR      44  16  32 W6        30.14S                  
CONCORD NH     FAIR      48  17  29 SW5       30.17S                  
MANCHESTER NH  PTSUNNY   50  17  27 S6        30.16S                  
NASHUA NH      FAIR      50  16  25 VRB3      30.18F                  
PORTSMOUTH NH  PTSUNNY   50  16  26 E7        30.16F                  
JAFFREY NH     FAIR      49  14  24 CALM      30.14S                  
KEENE NH       FAIR      44  19  36 CALM      30.17F                  
BURLINGTON VT  PTSUNNY   45  17  32 CALM      30.16R                  
MT. WASHINGTON PTSUNNY   25   5  42 W22         N/A  WCI  10          
$$

NYZ052-076-281600-
EASTERN NEW YORK
  
CITY           SKY/WX    TMP DP  RH WIND       PRES   REMARKS
ALBANY         CLOUDY    44  29  55 CALM      30.15F                  
NEW YORK CITY  LGT RAIN  47  39  74 E9        30.12F                  
$$
 
ANZALL-281600-
MARINE OBSERVATIONS
  
STATION/POSITION TIME  TEMP    WIND        PRES    VSBY  WAVE
                       AIR SEA DIR/SP/G                  HT/PER
                 (UTC) (F)     (DEG/KT/KT) (MB)    (MI)  (FT/S)
BOSTON BUOY      1450   44 44   80/  2/  4 1022.3S         2/11
BUZZARDS BAY     1400           50/  6/  7 1023.0R
NANTUCKET SOUND  1440                        N/A           1
MASS BAY-STELLWA 1404   45 42  240/  4/  4 1020.9R  1 7/8  2/11
ISLE OF SHOALS   1400   39     250/  2/  2 1022.1R
S OF BLOCK IS    1430      44                N/A           3/ 7
$$

......................KEY.........................
  SKY/WX - SKY CONDITION/PRESENT WEATHER
  TMP    - TEMPERATURE IN FAHRENHEIT
  DWPT   - DEWPOINT IN FAHRENHEIT
  RH     - RELATIVE HUMIDITY IN PERCENT
  WIND   - DIRECTION AND SPEED IN MPH
  PRES   - MEAN SEA LEVEL PRESSURE IN INCHES OF HG
  WCI    - WIND CHILL INDEX
  VSB    - VISIBILITY IN MILES
  HX     - HEAT INDEX
  TC     - TEMPERATURE IN CELSIUS
  VRB    - VARIABLE WIND DIRECTION
  N/A    - NOT AVAILABLE
  
      

Other recent Regional Weather Roundups

Mon Mar 30, 9:04am

Mon Mar 30, 8:04am

Mon Mar 30, 7:04am

Mon Mar 30, 6:04am

Mon Mar 30, 5:04am

Mon Mar 30, 4:04am

Mon Mar 30, 3:05am

Mon Mar 30, 2:04am

Mon Mar 30, 1:04am

Mon Mar 30, 12:04am

Sun Mar 29, 11:04pm

Sun Mar 29, 10:05pm

Sun Mar 29, 9:04pm

Sun Mar 29, 8:04pm

Sun Mar 29, 7:04pm

Sun Mar 29, 6:04pm

Sun Mar 29, 5:05pm

Sun Mar 29, 4:04pm

Sun Mar 29, 3:04pm

Sun Mar 29, 2:04pm

Sun Mar 29, 1:05pm

Sun Mar 29, 12:04pm

Sun Mar 29, 11:04am

Sun Mar 29, 10:04am

Sun Mar 29, 9:04am

Sun Mar 29, 8:04am

Sun Mar 29, 7:04am

Sun Mar 29, 6:04am

Sun Mar 29, 5:04am

Sun Mar 29, 4:04am

Sun Mar 29, 3:04am

Sun Mar 29, 2:04am

Sun Mar 29, 1:04am

Sun Mar 29, 12:04am

Sat Mar 28, 11:05pm

Sat Mar 28, 10:04pm

Sat Mar 28, 9:04pm

Sat Mar 28, 8:04pm

Sat Mar 28, 7:04pm

Sat Mar 28, 6:04pm

Sat Mar 28, 5:05pm

Sat Mar 28, 4:04pm

Sat Mar 28, 3:04pm

Sat Mar 28, 2:04pm

Sat Mar 28, 1:05pm

Sat Mar 28, 12:04pm

Sat Mar 28, 10:04am

Sat Mar 28, 9:04am

Sat Mar 28, 8:04am

Sat Mar 28, 7:04am

Sat Mar 28, 6:04am

Sat Mar 28, 5:04am

Sat Mar 28, 4:04am

Sat Mar 28, 3:04am

Sat Mar 28, 2:04am

Sat Mar 28, 1:04am

Sat Mar 28, 12:04am

Fri Mar 27, 11:04pm

Fri Mar 27, 10:04pm

Fri Mar 27, 9:04pm

Fri Mar 27, 8:04pm

Fri Mar 27, 7:05pm

Fri Mar 27, 6:04pm

Fri Mar 27, 5:05pm

Fri Mar 27, 4:05pm

Fri Mar 27, 3:04pm

Fri Mar 27, 2:05pm

Fri Mar 27, 1:04pm

Fri Mar 27, 12:04pm

Fri Mar 27, 11:04am

Fri Mar 27, 10:04am

Meta data:

ID: 7c23159b-2ac6-47a2-a95d-c3a2ee930782
Link: https://api.weather.gov/products/7c23159b-2ac6-47a2-a95d-c3a2ee930782